Regional Weather Roundup
Issued by NWS

Home | Current Version | Previous Version | Graphics & Text | Print | Product List | Glossary On
Versions: 1 2 3 4 5 6 7 8 9 10 11 12 13 14 15 16 17 18 19 20 21 22 23 24 25 26 27 28 29 30 31 32 33 34 35 36 37 38 39 40 41 42 43 44 45 46 47 48 49 50
000
ASUS45 KSLC 221810
RWRUT

UTAH REGIONAL WEATHER ROUNDUP
NATIONAL WEATHER SERVICE SALT LAKE CITY UT
1200 PM MDT FRI SEP 22 2017

UTZ001>011-023>025-221900-

NORTHERN UTAH

CITY           SKY/WX    TMP DP  RH WIND       PRES   REMARKS
BRIGHAM CITY   CLOUDY    45  37  75 CALM      29.93S
HILL AFB       LGT RAIN  42  40  94 NE5       29.92R
LOGAN          CLOUDY    46  39  76 W3        29.92R
OGDEN          LGT RAIN  44  40  85 CALM      29.92R
SALT LAKE CITY PTSUNNY   52  41  66 N10       29.91R
TOOELE VALLEY  CLOUDY    46  41  81 N8        29.92S
WENDOVER       CLOUDY    46  37  71 SE5       29.94R
HEBER CITY     MOSUNNY   52  34  50 SW6       29.86F
WEST JORDAN    CLOUDY    47  45  91 N3        29.92S

$$

UTZ011>015-024>027-221900-

CENTRAL/NORTHEAST UTAH

CITY           SKY/WX    TMP DP  RH WIND       PRES   REMARKS
PROVO AIRPORT  PTSUNNY   51  41  68 W7        29.91S
MOAB/CANYONLAN MOSUNNY   72  37  28 S18       29.75S
DELTA          CLOUDY    46  36  66 NW3       29.91S
PRICE          MOSUNNY   63  33  32 S14G20    29.80F
ROOSEVELT      LGT RAIN  61  34  36 CALM      29.83S
VERNAL         MOSUNNY   62  42  47 E6        29.80F

$$

UTZ013>016-019>022-027-221900-

SOUTHERN UTAH

CITY           SKY/WX    TMP DP  RH WIND       PRES   REMARKS
BRYCE CANYON   PTSUNNY   55  26  32 S21G29    29.90F
CEDAR CITY     MOSUNNY   50  42  74 VRB3      29.87S
MILFORD        CLOUDY    48  41  76 N9        29.89S
ST GEORGE      PTCLDY    65  34  31 SW5       29.83S
HANKSVILLE     SUNNY     72  28  20 SW24G31   29.77F
BLANDING         N/A     68  32  25 SW18G28   29.95F

$$

REGIONAL REPORTS     COLORADO/ARIZONA

CITY           SKY/WX    TMP DP  RH WIND       PRES   REMARKS
CRAIG, CO      LGT RAIN  59  38  45 NW12      29.88S
GRAND JUNCTION MOSUNNY   75  29  18 SW25G32   29.77F
RIFLE, CO      MOSUNNY   71  36  27 S17G35    29.83S
MONTROSE, CO   SUNNY     71  33  24 S12G21    29.86F
CORTEZ, CO     CLOUDY    67  33  28 S14G23    29.93S
PAGE, AZ       SUNNY     72  37  28 VRB5      29.77F
GRAND CANYON   MOSUNNY   61  34  36 SW23G33   29.93S
KINGMAN, AZ    SUNNY     68  29  23 SW13G18   29.86F
FLAGSTAFF, AZ  PTSUNNY   56  42  59 SW23G33   29.98R

$$

REGIONAL REPORTS    NEVADA/IDAHO/WYOMING

CITY           SKY/WX    TMP DP  RH WIND       PRES   REMARKS
LAS VEGAS, NV  MOSUNNY   68  30  24 CALM      29.83F
ELY, NY        CLOUDY    34  32  92 S5        29.93S WCI  30
ELKO, NV       PTSUNNY   44  33  65 VRB3      29.92F
POCATELLO, ID  LGT RAIN  42  39  89 SW12      29.94
BURLEY, ID     CLOUDY    45  37  73 W12G17    29.93S
FORT BRIDGER,  MOCLDY    47  36  64 W5        29.92S
EVANSTON, WY   PTSUNNY   43  36  76 SW12G20   29.89S
ROCK SPRINGS,  CLOUDY    48  40  73 E9        29.90S
KEMMERER, WY     N/A     43  34  70 CALM      29.90F

$$



USA.gov is the U.S. government's official web portal to all federal, state and local government web resources and services.